EDT,Max TemperatureF,Mean TemperatureF,Min TemperatureF,Max Dew PointF,MeanDew PointF,Min DewpointF,Max Humidity, Mean Humidity, Min Humidity, Max Sea Level PressureIn, Mean Sea Level PressureIn, Min Sea Level PressureIn, Max VisibilityMiles, Mean VisibilityMiles, Min VisibilityMiles, Max Wind SpeedMPH, Mean Wind SpeedMPH, Max Gust SpeedMPH,PrecipitationIn, CloudCover, Events, WindDirDegrees
2011-10-1,49,44,38,45,41,37,100,83,66,29.99,29.92,29.86,10,10,10,15,8,22,0.03,7,Rain,295
2011-10-2,52,45,38,45,39,36,93,74,54,30.03,29.99,29.95,10,10,7,16,9,27,T,7,Rain,294
2011-10-3,55,49,42,45,41,37,89,75,61,30.19,30.09,30.00,10,10,10,14,8,21,0.01,6,Rain,288
2011-10-4,63,54,45,54,49,45,100,84,67,30.31,30.25,30.19,10,10,7,13,6,16,0.00,6,,294
2011-10-5,74,57,39,54,48,43,100,69,38,30.35,30.30,30.26,10,7,2,8,2,,0.00,0,,299
2011-10-6,71,57,43,55,51,45,100,77,53,30.43,30.38,30.33,10,8,1,7,2,,0.00,0,,102
2011-10-7,73,58,43,59,54,46,100,79,57,30.52,30.46,30.42,10,8,0,9,2,,0.00,1,Fog,98
2011-10-8,71,57,42,59,51,43,100,78,56,30.57,30.52,30.48,10,7,0,8,2,,0.00,2,Fog,89
2011-10-9,71,56,41,54,48,43,100,74,47,30.53,30.48,30.41,10,9,3,10,3,,0.00,0,,81
2011-10-10,70,58,45,55,52,46,100,77,53,30.41,30.33,30.23,10,10,10,12,4,18,0.00,0,,78
2011-10-11,66,60,53,57,56,52,100,79,58,30.22,30.16,30.08,10,10,10,15,8,18,0.80,6,Rain,83
2011-10-12,69,61,53,64,60,55,100,94,87,30.03,29.92,29.86,10,7,1,13,3,17,0.37,8,Rain-Thunderstorm,83
2011-10-13,70,65,59,68,63,63,100,87,73,29.85,29.74,29.61,10,5,0,10,4,21,0.30,7,Fog-Rain,134
2011-10-14,62,57,52,57,49,39,100,70,40,29.78,29.67,29.60,10,9,5,17,7,33,0.25,4,Rain,275
2011-10-15,63,56,48,43,39,36,77,57,36,30.01,29.92,29.85,10,10,10,17,8,27,0.00,1,,274
2011-10-16,73,59,44,46,41,37,76,55,33,30.16,30.09,29.97,10,10,10,15,7,27,0.00,0,,257
2011-10-17,76,65,53,57,51,46,93,71,48,29.97,29.93,29.89,10,10,5,8,4,21,0.00,1,,260
2011-10-18,77,63,48,61,55,50,100,73,46,29.92,29.87,29.77,10,8,2,18,4,22,0.19,1,,143
2011-10-19,58,51,43,59,57,54,100,97,93,29.74,29.52,29.33,10,9,1,21,10,28,0.24,8,Rain-Thunderstorm,85
2011-10-20,49,45,40,45,40,37,100,83,66,29.86,29.62,29.46,10,10,4,18,11,32,T,7,Rain,243
2011-10-21,57,46,34,43,39,37,100,78,55,30.10,30.03,29.93,10,10,10,12,7,17,0.00,4,,290
2011-10-22,58,44,30,43,39,34,100,74,47,30.20,30.14,30.10,10,8,0,8,2,,0.00,0,Fog,252
2011-10-23,64,47,29,45,39,32,100,72,43,30.19,30.14,30.09,10,8,0,6,1,,0.00,1,Fog,314
2011-10-24,68,54,40,46,45,43,100,69,37,30.16,30.12,30.05,10,10,10,9,3,16,T,3,,264
2011-10-25,68,53,38,48,42,37,93,83,72,30.31,30.23,30.18,10,9,2,4,1,,0.00,0,,249
2011-10-26,69,54,38,50,46,41,100,74,47,30.17,30.06,29.94,10,10,10,10,2,18,0.00,0,,250
2011-10-27,65,55,45,57,51,46,93,77,60,29.91,29.84,29.78,10,10,7,16,7,22,0.01,3,Rain,252
2011-10-28,45,39,32,43,39,36,100,90,80,30.18,30.11,30.04,10,8,2,14,8,20,0.60,8,Rain,59
2011-10-29,43,38,32,39,35,30,100,81,62,30.07,30.01,29.97,10,8,2,22,7,30,0.14,6,Rain-Snow,319
2011-10-30,53,40,26,37,31,27,100,68,35,30.30,30.23,30.12,10,9,2,8,2,,T,0,,219
2011-10-31,50,40,29,39,35,32,100,77,54,30.32,30.26,30.19,10,10,10,7,2,,T,2,Rain,186